Location: Izdebno
(52.6670°N, 16.2170°E)
Time: 03:29:38
(UTC+02:00)

SR - Pass Details

Date: 25 February 2024
Orbit: 577 x 862 km, 66.7° (Epoch: 22 April)

Event Time Altitude Azimuth Distance (km) Brightness Sun altitude
Rises 17:44:20 0° 264° (W) 3,431 ? -3.6°
Reaches altitude 10° 17:47:15 10° 277° (W) 2,474 ? -4.1°
Maximum altitude 17:52:04 27° 334° (NNW) 1,534 ? -4.8°
Drops below altitude 10° 17:56:41 10° 32° (NNE) 2,355 ? -5.5°
Sets 17:59:23 0° 44° (NE) 3,235 ? -5.9°
Enters shadow 17:59:26 - 45° (NE) 3,250 ? -5.9°
